KDAL

Dallas Love Field

Airport
ICAO code
KDAL
IATA Code
DAL
Summary
ICAO Region
NAM
ICAO Territory
Location

Dallas , Texas

Serving
Dallas
Elevation
487 ft
Coordinates
32° 50' 37" N , 96° 51' 10" W
KCC
Airport LOS
Parallel Runway Operation
Metar
KDAL 181553Z 19006G14KT 8SM OVC017 24/21 A2992 RMK AO2 SLP123 T02440211

Description

Dallas Love Field is a city-owned public-use airport located 10 km northwest of the central business district of Dallas, a city in Dallas County, Texas, United States.

Airport map

Aerial View

SKYbrary Partners:

Safety knowledge contributed by: